Tracking 21612 objects as of 19-Oct-2020
HD Live streaming from Space Station
objects crossing your sky now

COSMOS 1275 DEB

Track COSMOS 1275 DEB now!
10-day predictions


NORAD ID: 39963
Int'l Code: 1981-053PF
Perigee: 933.9 km
Apogee: 1,129.1 km
Inclination: 83.0 °
Period: 105.6 minutes
Semi major axis: 7402 km
RCS: 0.01 m2 (small)
Launch date: April 25, 1981
Source: Commonwealth of Independent States (former USSR) (CIS)
Launch site: PLESETSK MISSILE AND SPACE COMPLEX (PKMTR)

Note: This is SATELLITE DEBRIS
aabbcc
Your satellite tracking list
Your tracking list is empty




NASA's NSSDC Master Catalog

Two Line Element Set (TLE):
1 39963U 81053NZ  20291.66003505  .00000338  00000-0  38902-3 0  9995
2 39963  83.0093  71.8015 0131853  24.1868 348.4958 13.63112012884109
Source of the keplerian elements: AFSPC